Other Public Products
Issued by NWS Grand Forks, ND

Home | Current Version | Previous Version | Text Only | Print | Product List | Glossary Off
Versions: 1 2 3 4 5 6 7 8 9 10 11 12 13 14 15 16 17 18 19 20 21 22 23 24 25 26 27 28 29 30 31 32 33 34 35 36 37 38 39 40 41 42 43 44 45 46 47 48 49 50

000
FPUS83 KFGF 280631
OPUFGF
PRAIRIE TO PINES WEATHER ROUNDUP
NATIONAL WEATHER SERVICE EASTERN NORTH DAKOTA/GRAND FORKS ND
1200 AM CST TUE FEB 28 2017

 **SATELLITE DATA USED TO AUGMENT SKY COVER AT AUTOMATED STATIONS**
 *****  WEATHER ACROSS EASTERN NORTH DAKOTA  *****

CITY           SKY/WX    TMP DP  RH WIND       PRES   REMARKS
GRAND FORKS    CLOUDY    17  10  74 N13       29.92F WCI   4
6HR MIN TEMP:  17; 6HR MAX TEMP:  21;

GRAND FORKS AF CLOUDY    15  10  82 N12       29.93S WCI   2
GRAND CITY NWS NOT AVBL
BUXTON         NOT AVBL
DEVILS LAKE    NOT AVBL
FARGO          FAIR      23  20  88 N15       29.87R WCI  10
6HR MIN TEMP:  23; 6HR MAX TEMP:  30;

WAHPETON ARPT  MOCLDY    28  21  74 N14G20    29.81F WCI  17
$$

 *****  WEATHER ACROSS CENTRAL AND WESTERN NORTH DAKOTA  *****

CITY           SKY/WX    TMP DP  RH WIND       PRES   REMARKS
JAMESTOWN      CLOUDY    19  16  88 NE13      29.84F WCI   6
6HR MIN TEMP:  19; 6HR MAX TEMP:  25;

BISMARCK       CLOUDY    20  16  84 NE7       29.85S WCI  11
6HR MIN TEMP:  20; 6HR MAX TEMP:  21;

MINOT          CLOUDY     3  -1  83 SW5       29.88R WCI  -6
6HR MIN TEMP:   1; 6HR MAX TEMP:  13;

MINOT AFB      CLOUDY     0  -4  85 NW5       29.88S WCI -10
GARRISON         N/A     -4  -7  87 N7        29.85S WCI -18
6HR MIN TEMP:  -5; 6HR MAX TEMP:  13;

WILLISTON      FAIR       4   1  88 NE3       29.84S
6HR MIN TEMP:   3; 6HR MAX TEMP:  16;

DICKINSON      CLOUDY    14  11  87 E7        29.76R WCI   4
6HR MIN TEMP:  13; 6HR MAX TEMP:  16; 6HR PCP: TRACE;

HETTINGER      CLOUDY    18  16  92 E9        29.78R WCI   7
6HR MIN TEMP:  18; 6HR MAX TEMP:  23;

$$

 *****  OTHER OBSERVATIONS NORTHEAST NORTH DAKOTA  *****

CITY           SKY/WX    TMP DP  RH WIND       PRES   REMARKS
WALHALLA       NOT AVBL
LANGDON        NOT AVBL
CAVALIER         N/A     10   7  85 N8        29.97S WCI  -1
GRAFTON        FAIR      12   9  85 N12       29.98R WCI  -2
CANDO          NOT AVBL
FORT TOTTEN      N/A     11   9  93 NE5       29.95S WCI   3
ROLLA          FAIR       1  -2  85 N7        29.89F WCI -11
RUGBY            N/A      1   0  92 E8        29.89S WCI -12
 ***** THE ABOVE OBSERVATIONS ARE NON NWS ARE NOT QUALITY
        CONTROLLED AND MAY MIS-REPORT RAIN FOR SNOW...
$$

 *****  OTHER OBSERVATIONS SOUTHEAST NORTH DAKOTA *****

CITY           SKY/WX    TMP DP  RH WIND       PRES   REMARKS
COOPERSTOWN    CLOUDY    16  12  86 NE14      29.88S WCI   1
VALLEY CITY    CLOUDY    18  18 100 N12       29.87F WCI   5
OAKES          NOT AVBL
GWINNER        FAIR      27  23  86 N16       29.83S WCI  14
SHEYENNE NWR     N/A     22  17  83 N12       29.95S WCI  10
BUFFALO        NOT AVBL
WYNDMERE         N/A     27  21  80 N15         N/A  WCI  15
 ***** THE ABOVE OBSERVATIONS ARE NON NWS ARE NOT QUALITY
       CONTROLLED AND MAY MIS-REPORT RAIN FOR SNOW...
$$

  *****  WEATHER ACROSS NORTHERN MINNESOTA  *****

CITY           SKY/WX    TMP DP  RH WIND       PRES   REMARKS
FLAG ISLAND    CLOUDY    14   9  79 N12       29.94S WCI   0
WARROAD        LGT SNOW  16  10  79 N9        29.93F WCI   4
ROSEAU         CLOUDY    16  10  79 NE12      29.93S WCI   3
HALLOCK        FAIR      12   9  85 N8        29.95S WCI   1
THF RVR FALLS  MOCLDY    19  16  88 N10       29.90S WCI   7
HALSTAD          N/A     20  18  88 N17         N/A  WCI   6
FOSSTON        CLOUDY    21  16  79 N10       29.86R WCI  10
BAUDETTE       CLOUDY    20  16  84 N8        29.89F WCI  10
6HR MIN TEMP:  20; 6HR MAX TEMP:  23; 6HR PCP: TRACE;

WASKISH        CLOUDY    25  16  68 NE8       29.87S WCI  16
CROOKSTON      CLOUDY    19  18  93 NE10      29.91F WCI   8
$$
  *****  WEATHER ACROSS CENTRAL AND WEST MINNESOTA  *****

CITY           SKY/WX    TMP DP  RH WIND       PRES   REMARKS
BEMIDJI        CLOUDY    26  14  61 N7        29.82S WCI  18
PARK RAPIDS    CLOUDY    30  20  66 NE6       29.78F WCI  24
6HR MIN TEMP:  30; 6HR MAX TEMP:  33;

WADENA         CLOUDY    32  27  80 CALM      29.78S
DETROIT LAKES  FAIR      28  23  80 N5        29.81R WCI  23
MOORHEAD       FAIR      23  19  86 N16       29.85F WCI  10
FERGUS FALLS   CLOUDY    28  25  86 N6        29.83R WCI  22
ELBOW LAKE     CLOUDY    31  29  91 CALM      29.78S
MORRIS MN      FAIR      32  28  86 CALM      29.76F
STAPLES        CLOUDY    32  25  74 SE5       29.78F
WHEATON        CLOUDY    28  27  93 N12G17    29.81F WCI  18
$$
  *****  WEATHER ELSEWHERE ACROSS MINNESOTA  *****

CITY           SKY/WX    TMP DP  RH WIND       PRES   REMARKS
DULUTH         MOCLDY    26  23  88 E3        29.84F
6HR MIN TEMP:  25; 6HR MAX TEMP:  27;

INTRNTL FALLS  CLOUDY    23  13  65 NE7       29.89S WCI  15
6HR MIN TEMP:  23; 6HR MAX TEMP:  27; 6HR PCP:  0.01;

ELY            MOCLDY    27  21  80 CALM      29.85F
CLOQUET        MOCLDY    27  25  93 E3        29.83F
BRAINERD       CLOUDY    35  25  66 SE6       29.81F
6HR MIN TEMP:  26; 6HR MAX TEMP:  36; 6HR PCP: TRACE;

HIBBING        CLOUDY    27  23  85 E3        29.83F
6HR MIN TEMP:  27; 6HR MAX TEMP:  31;

ALEXANDRIA     CLOUDY    34  27  75 CALM      29.78F
6HR MIN TEMP:  33; 6HR MAX TEMP:  37;

SAINT CLOUD    CLOUDY    33  26  75 E7        29.80F
6HR MIN TEMP:  31; 6HR MAX TEMP:  39;

MINNEAPOLIS    MOCLDY    38  28  67 SE12      29.81F
6HR MIN TEMP:  35; 6HR MAX TEMP:  39;

$$

  *****  WEATHER ACROSS SOUTH DAKOTA  *****

CITY           SKY/WX    TMP DP  RH WIND       PRES   REMARKS
SIOUX FALLS    CLOUDY    36  31  82 E5        29.70F
6HR MIN TEMP:  35; 6HR MAX TEMP:  41;

BROOKINGS      CLOUDY    33  29  85 N5        29.70F
WATERTOWN      MOCLDY    30  26  85 N6        29.73S WCI  24
6HR MIN TEMP:  29; 6HR MAX TEMP:  38;

HURON          FAIR      30  27  88 NE6       29.72S WCI  24
6HR MIN TEMP:  28; 6HR MAX TEMP:  45;

SISSETON         N/A     28  27  96 N16       29.78F WCI  16
ABERDEEN       FLURRIES  27  22  81 NE15      29.80R WCI  15
6HR MIN TEMP:  27; 6HR MAX TEMP:  37; 6HR PCP:  0.02;

MITCHELL       CLOUDY    31  29  92 N3        29.71S
PIERRE         LGT SNOW  33  31  92 NE5       29.72S FOG
6HR MIN TEMP:  33; 6HR MAX TEMP:  41; 6HR PCP:  0.03;

MOBRIDGE       CLOUDY    28  22  78 NE12      29.75S WCI  18
RAPID CITY     FAIR      25  20  81 N8        29.69R WCI  16
6HR MIN TEMP:  25; 6HR MAX TEMP:  37;

$$

  *****  SOME WEATHER IN NEARBY STATES *****

CITY           SKY/WX    TMP DP  RH WIND       PRES   REMARKS
GLASGOW MT     CLOUDY    15  11  83 SE9       29.76S WCI   3
6HR MIN TEMP:  13; 6HR MAX TEMP:  17;

GREAT FALLS MT FAIR      20  13  74 S8        29.57F WCI  10
6HR MIN TEMP:  10; 6HR MAX TEMP:  21;

CHEYENNE WY    MOCLDY    25  15  66 NW20G28   29.67R WCI  11
6HR MIN TEMP:  25; 6HR MAX TEMP:  30; 6HR PCP: TRACE;

SCOTTSBLUFF NE CLOUDY    28  25  88 NW7       29.69S WCI  21
6HR MIN TEMP:  26; 6HR MAX TEMP:  38;

OMAHA NE       CLOUDY    38  30  73 CALM      29.68F
6HR MIN TEMP:  37; 6HR MAX TEMP:  52;

DES MOINES IA  MOCLDY    47  32  56 E6        29.77F
6HR MIN TEMP:  47; 6HR MAX TEMP:  54; 6HR PCP:  0.01;

DAVENPORT IA   RAIN      47  38  71 SE10      29.87F
6HR MIN TEMP:  45; 6HR MAX TEMP:  49; 6HR PCP:  0.01;

CHICAGO IL     CLOUDY    48  40  73 S14       30.00F
6HR MIN TEMP:  43; 6HR MAX TEMP:  49;

EAU CLAIRE WI  FAIR      34  27  75 SE3       29.87F
6HR MIN TEMP:  32; 6HR MAX TEMP:  39;

LA CROSSE WI   CLOUDY    39  32  76 SE5       29.90F
6HR MIN TEMP:  38; 6HR MAX TEMP:  44;

$$

  *****  SOME NATIONAL WEATHER *****

CITY           SKY/WX    TMP DP  RH WIND       PRES   REMARKS
LA GUARDIA NY  CLOUDY    50  31  48 S3        30.39S
6HR MIN TEMP:  49; 6HR MAX TEMP:  53;

RALEIGH NC     CLOUDY    59  46  62 S7        30.34S
6HR MIN TEMP:  54; 6HR MAX TEMP:  61;

ATLANTA GA     CLOUDY    52  49  89 E7        30.27S


USA.gov is the U.S. government's official web portal to all federal, state and local government web resources and services.